Weather History for Lewistown, MT

Change the Weather History Date:

Saturday, June 28, 2014

  Actual Average Record
Temperature  
Mean Temperature 59 °F 61 °F  
Max Temperature 71 °F 75 °F 96 °F (1919)
Min Temperature 47 °F 48 °F 32 °F (1911)
Degree Days  
Heating Degree Days 6 5  
Month to date heating degree days 273 217  
Since 1 June heating degree days 273 217  
Since 1 July heating degree days 8621 8191  
Cooling Degree Days 0 1  
Month to date cooling degree days 1 14  
Year to date cooling degree days 1 16  
Since 1 June cooling degree days 1 14  
Growing Degree Days 12 (Base 50)    
Moisture  
Dew Point 42 °F    
Average Humidity 57    
Maximum Humidity 83    
Minimum Humidity 31    
Precipitation  
Precipitation T in 0.08 in 1.01 in (1941)
Month to date precipitation 2.50 2.92  
Year to date precipitation 7.96 9.18  
Snow  
Snow 0.00 in - - ()
Snow Depth 0.00 in    
Sea Level Pressure  
Sea Level Pressure 29.72 in    
Wind  
Wind Speed 14 mph (West)    
Max Wind Speed 29 mph    
Max Gust Speed 37 mph    
Visibility 10 miles    
Events      
T = Trace of Precipitation, MM = Missing Value Source: NWS Daily Summary

Daily Weather History Graph

Daily Weather History Graph

Search for Another Location

Airport:

Trip Planner

Search our weather history database for the weather conditions in past years. The results will help you decide how hot, cold, wet, or windy it might be!

Date:

Astronomy

Jun. 28, 2014 Rise Set
Actual Time 5:25 AM MDT 9:17 PM MDT
Civil Twilight 4:45 AM MDT 9:56 PM MDT
Nautical Twilight 3:50 AM MDT 10:51 PM MDT
Astronomical Twilight 2:29 AM MDT 12:11 AM MDT
Moon 7:00 AM MDT (6/28) 9:53 PM MDT (6/28)
Length of Visible Light 17h 11m
Length of Day
15h 52m
New Moon, 2% of the Moon is Illuminated
Jun 28
New Moon
Jul 5
First Quarter
Jul 12
Full
Jul 18
Last Quarter
Jul 26
New

Hourly Weather History & Observations

Time (MDT) Temp. Dew Point Humidity Pressure Visibility Wind Dir Wind Speed Gust Speed Precip Events Conditions
12:54 AM 54.0 °F 48.0 °F 80% 29.70 in 10.0 mi SSW 5.8 mph - N/A   Clear
1:54 AM 54.0 °F 48.0 °F 80% 29.71 in 10.0 mi SSW 3.5 mph - N/A   Scattered Clouds
2:54 AM 54.0 °F 48.9 °F 83% 29.71 in 10.0 mi South 3.5 mph - N/A   Overcast
3:54 AM 53.1 °F 46.9 °F 80% 29.70 in 10.0 mi SW 8.1 mph - N/A   Partly Cloudy
4:54 AM 55.0 °F 46.9 °F 74% 29.70 in 10.0 mi SW 9.2 mph - N/A   Mostly Cloudy
5:54 AM 54.0 °F 46.0 °F 75% 29.69 in 10.0 mi SW 10.4 mph - N/A   Clear
6:54 AM 57.0 °F 45.0 °F 64% 29.69 in 10.0 mi WSW 12.7 mph - N/A   Clear
7:54 AM 60.1 °F 46.0 °F 60% 29.70 in 10.0 mi WSW 13.8 mph - N/A   Clear
8:54 AM 63.0 °F 44.1 °F 50% 29.70 in 10.0 mi West 13.8 mph - N/A   Clear
9:54 AM 66.0 °F 42.1 °F 42% 29.70 in 10.0 mi West 20.7 mph 26.5 mph N/A   Scattered Clouds
10:54 AM 66.9 °F 43.0 °F 42% 29.69 in 10.0 mi WSW 13.8 mph - N/A   Clear
11:54 AM 68.0 °F 39.9 °F 36% 29.69 in 10.0 mi WNW 9.2 mph - N/A   Mostly Cloudy
12:54 PM 66.9 °F 39.0 °F 36% 29.70 in 10.0 mi WNW 18.4 mph 25.3 mph N/A   Mostly Cloudy
1:54 PM 69.1 °F 41.0 °F 36% 29.69 in 10.0 mi WNW 19.6 mph 26.5 mph N/A   Mostly Cloudy
2:54 PM 69.1 °F 39.0 °F 33% 29.70 in 10.0 mi WNW 24.2 mph 35.7 mph N/A   Partly Cloudy
3:54 PM 70.0 °F 37.9 °F 31% 29.71 in 10.0 mi WNW 21.9 mph 32.2 mph N/A   Clear
4:54 PM 68.0 °F 39.0 °F 35% 29.71 in 10.0 mi WNW 23.0 mph 35.7 mph 0.00 in   Mostly Cloudy
5:54 PM 68.0 °F 41.0 °F 37% 29.73 in 10.0 mi WNW 20.7 mph 34.5 mph N/A   Partly Cloudy
6:54 PM 66.9 °F 37.9 °F 34% 29.72 in 10.0 mi WNW 20.7 mph 29.9 mph N/A   Partly Cloudy
7:54 PM 66.0 °F 39.0 °F 37% 29.72 in 10.0 mi WNW 20.7 mph 29.9 mph N/A   Clear
8:54 PM 63.0 °F 37.9 °F 40% 29.73 in 10.0 mi WNW 17.3 mph 26.5 mph N/A   Clear
9:54 PM 59.0 °F 37.9 °F 46% 29.77 in 10.0 mi WNW 12.7 mph - N/A   Clear
10:54 PM 55.9 °F 39.0 °F 53% 29.79 in 10.0 mi WSW 9.2 mph - N/A   Clear
11:54 PM 51.1 °F 39.0 °F 63% 29.81 in 10.0 mi WSW 10.4 mph - N/A   Partly Cloudy